Theta_e
305 306 306 306 307 308 309 308 307 306 310 313 313 312 312 312 313 313 314 314 313 313 313 315 316 318 315 315 316 317 318 319 318 319 319 317 317 316 316 317 317 317 318 318 318
305 306 306 306 307 308 309 308 309 306 310 312 312 311 311 311 311 311 311 311 311 311 310 311 312 316 317 316 315 316 317 317 317 316 317 315 315 315 315 316 317 317 317 317 318
305 306 308 308 307 309 309 309 314 307 309 312 312 312 316 317 311 311 311 311 311 310 310 311 310 314 316 315 314 315 318 316 315 315 314 314 314 314 315 316 316 316 316 316 317
305 306 309 309 310 310 310 312 315 313 313 313 313 314 316 313 312 311 310 310 311 311 310 310 310 313 313 312 313 312 315 314 313 313 314 313 314 314 313 313 313 314 316 316 317
305 305 307 310 310 310 310 313 315 313 311 314 314 311 310 310 311 310 311 310 310 309 309 309 310 311 311 312 312 314 313 313 312 313 314 313 312 313 312 312 312 313 315 315 315
304 305 306 310 310 311 310 313 316 313 312 311 311 310 310 311 311 311 311 311 309 309 309 309 309 310 312 311 313 313 313 312 313 312 311 312 311 311 311 311 312 313 314 314 313
305 305 306 310 311 310 310 313 313 311 311 311 311 311 311 311 311 311 311 311 311 310 310 310 309 309 309 311 311 312 312 312 311 311 311 310 311 311 310 311 311 312 313 313 312
311 305 306 306 312 311 309 312 314 313 312 312 311 311 311 311 311 311 311 311 312 312 310 311 310 310 309 309 309 310 311 311 311 310 310 310 311 312 310 310 311 311 312 312 311
315 310 306 307 311 309 309 311 316 316 316 313 313 310 311 311 311 311 311 311 312 312 312 311 310 308 309 310 310 309 311 311 310 310 310 311 311 311 310 311 311 311 311 310 310
315 314 307 307 310 309 311 311 313 313 313 313 313 311 311 311 312 311 311 312 311 311 312 310 308 310 311 311 312 312 311 311 311 311 311 311 312 313 312 311 311 311 311 310 310
312 315 309 306 310 309 312 312 311 311 313 312 312 311 312 312 312 311 311 313 311 310 313 308 311 311 311 310 310 310 310 311 312 312 311 313 313 313 312 311 311 311 310 310 310
310 315 310 306 310 308 311 311 311 311 312 312 312 313 312 310 311 313 313 313 311 313 309 311 311 310 310 310 310 311 312 313 312 311 312 313 313 313 312 313 314 317 318 317 317
310 314 309 307 310 308 310 311 312 313 313 314 314 314 311 311 311 313 311 312 311 311 310 311 310 309 310 310 311 312 312 312 312 312 313 312 313 312 313 316 316 315 314 314 315
310 312 308 307 309 308 308 309 313 313 315 314 315 310 313 312 313 311 310 311 312 311 310 310 309 310 310 311 311 313 311 311 313 314 314 312 314 313 315 316 316 314 312 312 312
311 310 309 309 307 308 309 311 313 316 316 310 309 309 313 313 313 312 311 311 311 311 311 311 312 311 311 311 311 312 311 312 313 313 313 313 313 313 315 317 317 315 312 310 310
311 311 312 311 308 310 311 313 314 317 316 310 308 309 313 312 312 311 311 310 310 311 310 311 309 309 310 311 311 311 312 311 310 311 315 312 313 314 317 317 315 312 310 309 308
311 311 312 311 309 309 311 313 317 315 309 309 308 309 312 311 312 311 312 313 313 310 311 312 312 309 310 312 312 313 316 319 317 316 315 311 314 315 317 313 312 310 309 307 307
311 311 312 312 311 310 312 315 317 311 309 308 308 311 313 310 311 311 311 312 312 312 312 313 313 312 311 312 312 313 315 317 318 318 316 314 316 315 316 311 310 309 308 307 306
311 311 313 313 312 310 311 315 314 311 309 308 308 309 310 310 310 310 311 312 312 313 312 314 314 311 312 311 312 314 315 314 316 315 315 315 314 315 315 313 310 310 309 308 306
311 311 312 314 312 311 312 313 310 308 308 309 309 308 308 308 310 310 310 312 313 313 312 313 314 313 311 312 313 313 314 317 315 317 317 315 315 317 317 313 310 309 309 307 306
312 311 313 312 312 310 313 311 309 307 308 310 309 309 309 309 310 310 310 311 312 313 312 313 313 314 312 313 313 314 316 315 314 315 318 317 316 316 313 311 310 308 307 306 306
312 313 310 310 310 305 310 308 309 309 307 309 309 309 310 310 310 310 311 311 311 312 313 313 314 314 313 312 311 312 313 314 316 316 316 316 315 313 313 311 309 308 307 306 305
312 312 310 310 311 309 308 310 310 311 309 309 310 309 309 310 311 310 311 311 311 313 314 313 315 316 315 315 313 314 314 314 314 314 316 315 316 314 313 311 308 307 306 305 305
312 310 310 307 306 308 308 309 309 309 309 308 309 308 309 309 308 310 310 310 310 311 312 313 315 314 317 315 313 314 314 313 313 317 315 314 314 314 312 310 307 306 305 305 304
312 307 307 311 308 307 308 308 310 311 311 308 308 309 310 311 309 309 309 309 308 309 313 315 316 315 314 314 313 314 314 314 315 315 316 314 314 313 312 309 307 305 305 305 305
310 306 305 305 304 306 307 310 309 310 311 309 309 309 308 311 311 310 309 309 309 313 314 312 316 315 315 314 315 316 314 314 313 312 314 314 313 310 309 308 307 305 305 305 304
309 308 305 307 306 307 309 310 309 309 309 308 308 308 308 308 307 308 307 307 308 313 315 315 316 314 316 314 314 315 313 314 313 312 312 313 312 310 309 307 306 305 305 304 303
Wind_Speed
17 15 12 11 11 11 13 13 11 8 11 18 22 23 23 24 24 23 25 19 16 14 14 10 9 9 9 6 6 4 2 2 1 3 7 16 14 16 14 15 21 13 22 29 30
19 16 14 12 10 10 12 13 9 7 14 21 23 23 23 22 24 25 19 18 13 13 12 15 12 7 6 4 4 3 0 2 0 7 9 15 18 20 16 22 21 23 27 29 27
21 16 15 12 10 10 12 12 10 7 13 19 20 18 7 4 9 14 13 12 12 13 15 13 11 8 8 5 5 2 1 0 3 6 12 16 20 17 17 14 21 26 27 29 29
24 16 14 12 10 10 11 10 10 12 11 17 14 2 2 2 4 10 13 11 8 9 13 10 15 4 3 3 2 1 1 3 5 12 13 16 15 16 15 21 20 22 21 23 28
26 18 13 11 10 9 9 7 10 13 14 14 12 12 10 14 9 9 12 17 11 13 14 12 12 4 3 1 2 2 2 3 9 13 10 15 15 14 18 19 20 20 20 23 26
28 21 13 9 10 8 8 5 9 11 12 14 11 7 5 13 9 8 11 19 15 16 13 14 7 5 4 4 2 3 7 9 7 7 13 11 20 12 15 24 24 22 22 23 24
30 24 14 9 7 8 7 5 10 12 16 16 15 15 16 9 8 6 8 14 16 13 12 11 7 6 3 3 5 4 8 7 6 9 8 10 14 14 20 22 26 25 25 23 26
31 28 16 10 7 7 8 5 9 8 7 4 7 8 6 8 7 4 4 9 11 13 8 9 5 5 4 6 3 2 1 9 6 16 9 7 17 17 23 25 28 28 28 27 27
31 31 21 10 6 9 8 7 8 5 5 5 2 3 5 8 9 7 3 6 7 9 8 5 2 4 4 5 1 2 10 16 10 7 11 9 20 18 28 28 29 30 31 31 32
31 31 23 9 6 10 4 8 7 3 4 3 3 2 2 2 8 9 1 8 6 9 5 4 4 2 3 6 6 15 15 8 15 11 16 17 22 21 26 27 28 30 29 31 31
32 31 23 9 5 8 4 4 3 3 5 2 3 2 2 6 8 4 4 9 4 1 4 3 1 3 6 5 8 9 10 14 15 14 15 21 23 23 22 18 20 24 26 28 29
32 33 23 8 1 5 1 3 3 1 1 5 3 1 3 6 2 7 10 6 4 6 1 1 1 2 6 2 1 5 11 14 9 7 16 18 27 18 8 9 14 18 23 23 24
32 33 20 7 1 3 4 3 1 1 1 3 4 1 1 4 3 7 13 5 4 1 1 2 4 3 3 2 6 7 8 13 18 20 16 10 13 1 3 9 15 20 22 23 24
31 31 16 7 2 2 1 3 0 1 1 3 4 1 3 3 4 10 13 3 1 3 1 0 2 3 2 3 7 10 4 14 19 15 8 7 8 7 6 9 14 21 27 27 29
29 28 14 8 5 2 2 2 1 2 3 4 3 4 4 2 1 7 11 2 0 3 2 2 4 4 1 1 6 7 14 16 16 11 8 1 6 4 9 8 14 21 28 29 30
27 26 17 6 1 1 3 0 2 2 5 4 2 2 2 5 3 4 5 5 1 1 0 3 3 2 1 6 3 11 11 2 3 2 2 2 5 11 5 6 13 22 30 29 32
26 25 20 6 3 2 4 6 2 4 1 3 2 2 3 1 1 4 3 6 4 5 5 5 1 1 1 7 2 13 10 4 3 2 3 1 11 9 1 6 10 17 25 27 30
25 24 18 7 4 3 2 1 5 2 3 3 2 3 2 1 2 2 2 1 3 1 1 5 3 1 2 4 5 4 4 2 5 4 12 15 6 3 8 4 10 17 22 26 30
25 22 7 8 4 3 3 3 4 5 4 7 4 3 2 2 2 1 2 3 3 2 3 4 4 2 7 2 3 2 2 2 3 8 6 4 5 7 6 6 16 23 28 30 31
27 21 8 9 6 5 2 5 4 4 5 3 6 4 5 4 2 1 3 5 4 7 0 3 5 1 1 1 3 3 2 3 1 5 6 6 14 9 5 11 14 20 26 29 29
23 12 6 7 7 5 4 5 5 7 8 6 7 5 5 5 5 4 3 4 6 8 5 4 3 2 6 4 3 2 3 2 2 3 4 7 6 3 1 7 13 18 25 29 30
14 5 6 5 4 2 3 5 3 5 9 3 4 6 7 9 6 5 7 5 11 11 5 7 3 5 7 11 9 8 5 3 3 3 6 7 13 8 2 7 16 21 26 28 27
16 11 13 10 5 4 3 3 4 5 6 7 9 6 4 7 2 7 5 4 11 9 7 7 3 4 2 2 2 5 7 7 7 6 8 5 7 7 8 18 19 22 28 27 27
7 4 6 7 6 3 4 4 4 5 5 6 4 6 4 6 5 3 6 4 10 11 9 10 7 9 8 9 8 13 17 15 9 5 14 18 28 24 21 17 20 28 26 26 27
6 5 5 3 3 2 1 1 4 4 6 8 4 10 8 6 5 7 7 6 9 7 8 8 8 14 18 19 18 20 21 18 18 18 12 21 22 24 21 13 22 24 24 26 30
7 5 4 7 4 4 5 5 8 8 7 6 8 9 11 7 9 8 7 5 8 6 8 6 5 6 9 16 17 21 19 18 20 19 16 19 23 7 15 21 24 24 24 27 28
10 14 7 7 4 4 6 8 8 7 8 9 9 7 9 16 18 16 12 10 9 7 10 7 4 3 6 4 14 14 7 8 5 8 10 11 16 15 16 17 23 25 22 25 27
Wind_Direction
19 18 19 19 21 23 25 24 21 63 113 120 115 106 97 87 83 74 60 55 51 53 47 52 63 93 94 86 85 100 140 189 302 358 311 323 329 330 320 303 314 302 306 306 316
15 15 15 16 19 22 23 25 31 80 126 131 122 112 101 87 74 64 62 53 49 43 44 46 48 76 70 55 43 53 177 147 57 311 317 318 320 320 316 314 311 303 303 305 314
14 15 15 16 22 23 22 32 50 88 130 144 136 129 86 57 55 38 46 35 34 39 46 43 38 95 63 72 28 61 69 172 296 320 328 320 313 318 314 312 321 314 310 308 309
14 14 16 22 24 23 25 45 68 93 110 160 157 64 325 121 76 67 50 30 25 28 24 33 41 71 76 79 44 266 216 281 311 315 313 308 312 302 307 307 310 310 304 306 305
13 12 14 17 18 25 30 67 96 102 99 113 145 108 93 86 92 86 48 32 43 30 40 40 42 71 57 107 350 149 309 274 300 300 302 300 296 305 297 314 315 310 302 308 308
12 9 9 9 17 19 30 94 116 110 114 115 119 125 80 83 96 76 43 39 48 45 42 40 33 41 89 0 16 311 290 298 298 301 305 303 310 303 300 316 311 310 305 307 306
11 8 5 359 7 12 10 131 137 123 120 116 107 89 72 82 77 59 35 37 38 28 45 46 45 61 9 2 331 316 310 319 276 335 305 328 295 300 308 317 315 311 307 310 308
8 5 359 351 351 346 339 161 167 160 159 133 116 92 86 58 40 19 25 25 29 22 10 33 58 85 40 318 323 337 302 334 334 310 301 329 297 307 314 316 307 305 303 300 303
5 3 358 360 356 342 336 166 167 180 190 181 195 107 109 49 23 5 356 7 357 6 356 13 113 77 42 1 315 41 315 313 319 287 311 305 297 312 306 306 303 302 300 296 297
3 0 356 359 6 359 65 156 165 168 193 208 213 138 123 6 354 351 319 353 341 322 1 11 58 115 35 1 335 307 317 304 310 309 312 299 294 305 305 300 300 306 307 302 300
0 359 353 348 17 19 125 144 181 225 220 234 154 119 19 328 342 20 345 340 322 342 343 35 323 98 339 297 281 290 286 303 304 307 321 303 302 307 313 308 318 330 328 315 306
357 357 352 342 31 24 152 191 133 187 272 207 207 120 6 5 79 42 13 11 321 327 79 324 171 115 333 309 358 313 309 314 300 303 314 307 298 312 319 5 16 6 359 353 342
356 356 355 347 241 357 58 122 143 249 268 234 210 126 64 336 88 27 15 335 291 305 355 273 104 338 327 139 347 321 301 314 300 315 293 300 292 50 51 21 21 9 355 351 345
356 356 358 11 313 325 326 8 280 172 273 196 174 123 7 166 98 39 14 347 319 347 41 232 101 353 338 164 349 315 279 299 303 322 312 14 292 308 353 352 16 6 359 351 345
352 353 349 343 323 285 319 340 188 110 264 119 116 128 69 97 358 19 12 43 54 318 254 63 329 353 290 340 327 298 310 290 299 287 289 50 253 314 347 353 2 356 353 352 346
346 347 340 325 335 355 332 236 132 194 242 167 84 57 90 29 39 10 19 31 20 66 139 313 317 215 302 303 303 320 289 307 189 216 275 56 329 295 340 356 350 349 352 353 344
338 341 335 267 258 293 336 153 184 225 114 164 145 86 131 31 123 15 52 44 40 349 359 326 112 155 212 317 345 351 352 351 329 322 284 150 306 277 329 46 7 348 346 346 342
333 337 329 218 244 285 156 149 224 161 194 123 132 124 182 36 131 31 75 92 80 80 321 353 161 7 21 332 319 353 352 37 304 299 299 298 241 322 150 73 9 2 351 345 344
331 334 316 196 227 236 181 219 241 199 158 161 131 155 173 222 6 0 165 209 183 194 23 330 260 274 328 323 273 106 313 350 248 265 278 239 261 191 188 339 358 354 349 350 342
333 326 266 218 242 223 182 240 239 208 146 166 197 181 185 188 206 224 211 179 187 192 105 181 291 263 294 232 101 282 72 258 159 296 287 262 286 262 281 342 339 347 342 341 338
335 319 231 242 235 182 221 229 229 222 176 184 194 167 192 182 200 205 204 184 202 186 181 171 213 241 308 196 264 209 203 169 246 246 282 301 295 132 335 335 333 335 335 336 335
334 302 243 271 210 206 203 197 215 206 204 197 169 191 191 178 198 217 213 229 190 157 188 196 192 276 283 307 269 242 241 182 245 250 242 283 285 127 89 344 339 334 327 330 328
323 279 271 232 231 217 225 225 233 198 199 198 200 196 176 179 179 209 196 229 174 173 186 169 194 299 263 153 147 214 215 228 247 252 234 267 274 173 264 344 337 330 327 326 324
303 296 279 224 231 204 183 210 226 239 220 189 176 143 153 191 229 216 218 233 200 206 185 173 205 218 248 285 293 277 273 266 235 238 275 256 281 297 323 330 327 334 329 324 323
239 251 271 286 206 184 247 219 204 211 199 189 200 207 179 188 198 224 224 261 233 219 187 198 239 236 247 258 260 260 274 270 252 252 251 283 288 300 317 319 322 323 328 326 330
270 274 308 287 256 217 196 219 224 229 199 203 216 206 197 193 191 193 203 214 244 178 180 188 253 245 266 264 265 271 270 265 262 262 259 263 275 302 309 312 318 318 324 324 325
291 295 284 266 268 216 225 225 226 214 234 229 207 205 216 231 235 247 244 261 241 196 191 186 222 241 272 336 301 280 259 213 204 230 245 264 284 309 307 314 315 315 315 320 320